Flag for Vietnam Weather past 2 weeks in Hanoi, Vietnam

Now
72 °F

Fog.


Feels Like: 69 °F
Forecast: 67 / 77 °F
Wind: 8 mph from Southeast

Location: Ha Noi Airport

Current Time: Mar 29, 2015 at 2:17:07 AM

Latest Report: Mar 29, 2015 at 1:30 AM


Visibility: 2 mi

Pressure: 29.95 "Hg

Humidity: 88%

Dew point: 68 °F

Location of HanoiLocation

Historic Weather in Hanoi — Graph

°F

Hanoi temperature yesterday

Maximum temperature yesterday: 81 °F (at 1:30 PM)
Minimum temperature yesterday: 70 °F (at 12:00 AM)
Average temperature yesterday: 74 °F

Past Weeks' High & Low Weather Summary

 TemperatureHumidityPressure
High86 °F (Mar 18, 1:30 PM)100% (Mar 14, 1:00 AM)30.24 "Hg (Mar 14, 1:00 AM)
Low64 °F (Mar 14, 1:00 AM)62% (Mar 18, 1:30 PM)29.62 "Hg (Mar 17, 3:00 PM)
Average73 °F86%29.96 "Hg
* Reported Mar 14 1:00 AM — Mar 29 1:00 AM, Hanoi, Weather by CustomWeather, © 2015

Note: Actual official high and low records may vary slightly from our data, if they occured in-between our weather recording intervals... More about our weather records

Advertising

Hanoi weather history for previous 24 hours

 ConditionsComfort  
Time TempWeatherWind HumidityBarometerVisibility
1:00 AM
Sun, Mar 29
72 °FFog.12 mph88%29.95 "Hg3 mi
12:30 AM72 °FPartly cloudy.10 mph88%29.98 "Hg3 mi
12:00 AM72 °FPartly cloudy.10 mph88%29.98 "Hg3 mi
11:30 PM
Sat, Mar 28
72 °FPartly cloudy.10 mph88%29.98 "Hg3 mi
11:00 PM72 °FPartly cloudy.12 mph88%29.98 "Hg4 mi
10:30 PM72 °FPartly cloudy.10 mph88%29.98 "Hg4 mi
10:00 PM72 °FPartly cloudy.10 mph83%29.98 "Hg5 mi
9:30 PM73 °FPassing clouds.13 mph78%29.98 "Hg6 mi
9:00 PM73 °FPassing clouds.9 mph83%29.98 "Hg5 mi
8:30 PM73 °FClear.13 mph83%29.95 "Hg6 mi
8:00 PM75 °FClear.14 mph78%29.95 "Hg6 mi
7:30 PM75 °FPassing clouds.10 mph78%29.95 "Hg6 mi
7:00 PM77 °FPassing clouds.12 mph74%29.92 "HgN/A
6:30 PM77 °FPassing clouds.10 mph74%29.92 "HgN/A
6:00 PM77 °FBroken clouds.10 mph74%29.92 "HgN/A
5:30 PM79 °FPassing clouds.12 mph70%29.92 "HgN/A
5:00 PM79 °FScattered clouds.12 mph70%29.92 "HgN/A
4:30 PM79 °FBroken clouds.14 mph70%29.92 "Hg6 mi
4:00 PM79 °FBroken clouds.12 mph70%29.92 "Hg4 mi
3:30 PM81 °FBroken clouds.9 mph66%29.92 "Hg5 mi
3:00 PM81 °FBroken clouds.9 mph66%29.95 "Hg5 mi
2:30 PM81 °FBroken clouds.7 mph66%29.95 "Hg5 mi
2:00 PM81 °FBroken clouds.8 mph70%29.98 "Hg4 mi
1:30 PM81 °FBroken clouds.7 mph70%30.01 "Hg3 mi
1:00 PM77 °FBroken clouds.7 mph74%30.01 "Hg3 mi
12:30 PM77 °FPartly sunny.6 mph69%30.04 "Hg4 mi
12:00 PM77 °FScattered clouds.7 mph74%30.04 "Hg3 mi
11:30 AM75 °FFog.8 mph78%30.07 "Hg3 mi
11:00 AM75 °FFog.7 mph78%30.09 "Hg2 mi
10:30 AM73 °FFog.9 mph83%30.09 "Hg2 mi
10:00 AM73 °FFog.6 mph83%30.09 "Hg2 mi
9:30 AM72 °FFog.6 mph88%30.09 "Hg2 mi
9:00 AM72 °FFog.6 mph88%30.09 "Hg1 mi
8:30 AM72 °FFog.3 mph88%30.09 "Hg1 mi
8:00 AM72 °FFog.5 mph94%30.09 "Hg1 mi
7:30 AM70 °FFog.6 mph94%30.09 "Hg1 mi
7:00 AM70 °FFog.6 mph94%30.07 "Hg1 mi
6:30 AM70 °FFog.3 mph94%30.07 "Hg1 mi
6:00 AM70 °FFog.2 mph94%30.07 "Hg1 mi
5:30 AM70 °FFog.1 mph94%30.04 "Hg1 mi
5:00 AM70 °FFog.5 mph94%30.04 "Hg1 mi
4:30 AM70 °FFog.2 mph94%30.04 "Hg1 mi
4:00 AM70 °FFog.3 mph94%30.04 "Hg1 mi
3:30 AM70 °FFog.1 mph94%30.04 "Hg1 mi
3:00 AM70 °FFog.2 mph94%30.04 "Hg1 mi
2:30 AM70 °FFog.1 mph94%30.04 "Hg1 mi
2:00 AM70 °FFog.3 mph94%30.07 "Hg1 mi
Weather by CustomWeather, © 2015

See weather overviewHow to use our weather pages